Погода в Сан-Борха

Боливия     14°52′34″S   66°45′52″W
темп.,
°C
ветер,
м/с
пор.,
м/с
влажн.,
%
обл.,
%
осадки,
мм/ч
давл.,
гПа
погр.,
м
18 января, пн
пн1823:00+23ююв3898100 9.3 1009390
02:00+20вюв41398100 16.6 1010818
05:00+18вюв2899100 12.1 1012595
08:00+17в2799100 16.4 1015512
11:00+18вюв2797100 0.3 1016490
14:00+18ююв1594100 0.4 1014488
17:00+19ююв1391100 0.1 1012380
20:00+18юз1295100 0.1 1013127
19 января, вт
вт1923:00+19ююз1293100 0.0 1015111
02:00+18юз2598100 0.7 1013162
05:00+19с0197100 0.0 101124
08:00+20с0195100 0.0 101424
11:00+27вюв116158 0.0 1014598
14:00+30з024870 0.0 1011973
17:00+29ссз12520 0.0 10091209
20:00+22с12780 0.0 101124
20 января, ср
ср2023:00+20юз12856 0.0 101427
02:00+21зюз127650 0.0 101259
05:00+21юз0172100 0.0 101123
08:00+23ю117273 0.0 101386
11:00+26св126475 0.0 1012281
14:00+33всв134055 0.0 10101672
17:00+32в12450 0.0 10061562
20:00+24св117533 0.0 100824
21 января, чт
чт2123:00+22зюз1184100 0.0 101223
02:00+22юз128283 0.0 101132
05:00+23зюз127694 0.0 101130
08:00+25юв117397 0.0 1012125
11:00+32вюв234899 0.0 10111087
14:00+34вюв243773 0.0 10082132
17:00+33в23444 0.0 10061793
20:00+25в116552 0.0 100924
22 января, пт
пт2223:00+23юз127679 0.0 101131
02:00+22зюз127866 0.0 101024
05:00+21юв117875 0.0 101023
08:00+24вюв127684 0.0 1012184
11:00+30в235698 0.0 10131053
14:00+27всв478299 1.7 1011791
17:00+24ююв1497100 2.6 1010313
20:00+23зюз0198100 2.6 101223